Location: Unspecified
(0.0000°N, 0.0000°E)
Time: 22:24:15
(UTC+00:00)

Hubble Space Telescope - Pass Details

Date: 10 February 2018
Orbit: 537 x 541 km, 28.5° (Epoch: 21 February)

Event Time Altitude Azimuth Distance (km) Brightness Sun altitude
Rises 19:28:25 0° 270° (W) 2,670 5.8 -18.0°
Reaches altitude 10° 19:31:18 10° 250° (WSW) 1,781 4.7 -18.7°
Maximum altitude 19:34:01 17° 208° (SSW) 1,396 3.4 -19.3°
Drops below altitude 10° 19:36:44 10° 167° (SSE) 1,782 3.4 -20.0°
Enters shadow 19:38:14 - 154° (SSE) 2,210 3.8 -20.3°
